The Dalles, WA

8:39 PM PDT on September 18, 2019 (GMT -0700)
Columbia Gorge Regional-The Dalles

Weather History for KDLS - August, 2019

Change the Weather History Date:

Thursday, August 22, 2019

  Actual Average Record
Temperature  
Mean Temperature 68 °F -  
Max Temperature 78 °F 86 °F 99 °F (1964)
Min Temperature 60 °F 58 °F 44 °F (1960)
Cooling Degree Days 2    
Growing Degree Days 18 (Base 50)    
Moisture  
Dew Point 53 °F    
Average Humidity 60    
Maximum Humidity 80    
Minimum Humidity 45    
Precipitation  
Precipitation 0.00 in - - ()
Sea Level Pressure  
Sea Level Pressure 29.96 in    
Wind  
Wind Speed 13 mph ()    
Max Wind Speed 25 mph    
Max Gust Speed 30 mph    
Visibility 10.0 miles    
Events Rain    
Averages and records for this station are not official NWS values.
T = Trace of Precipitation, MM = Missing Value Source: Averaged Metar Reports

Daily Weather History Graph

Daily Weather History Graph

Search for Another Location

Airport or City:

Astronomy

Aug. 22, 2019 Rise Set
Actual Time 6:13 AM PDT 8:00 PM PDT
Civil Twilight 5:41 AM PDT 8:32 PM PDT
Nautical Twilight 5:03 AM PDT 9:10 PM PDT
Astronomical Twilight 4:21 AM PDT 9:52 PM PDT
Moon 11:32 PM PDT (8/22) 1:14 PM PDT (8/22)
Length of Visible Light 14h 50m
Length of Day
13h 47m
Waning Gibbous, 58% of the Moon is Illuminated
Aug 22
Waning Gibbous
Aug 23
Last Quarter
Aug 30
New
Sep 5
First Quarter
Sep 13
Full

Hourly Weather History & Observations

Time (PDT) Temp. Dew Point Humidity Pressure Visibility Wind Dir Wind Speed Gust Speed Precip Events Conditions
12:53 AM 66.0 °F 57.9 °F 75% 29.92 in 10.0 mi West 12.7 mph - 0.00 in   Clear
1:53 AM 64.0 °F 57.9 °F 80% 29.92 in 10.0 mi WNW 12.7 mph - N/A   Clear
2:53 AM 64.0 °F 57.0 °F 78% 29.93 in 10.0 mi West 12.7 mph - 0.00 in Rain Light Rain
3:53 AM 63.0 °F 55.0 °F 75% 29.95 in 10.0 mi West 13.8 mph - 0.00 in   Clear
4:53 AM 62.1 °F 52.0 °F 70% 29.96 in 10.0 mi WNW 17.3 mph - N/A   Clear
5:53 AM 60.1 °F 52.0 °F 75% 29.97 in 10.0 mi West 4.6 mph - N/A   Clear
6:53 AM 61.0 °F 50.0 °F 67% 29.99 in 10.0 mi NW 12.7 mph - N/A   Clear
7:53 AM 61.0 °F 51.1 °F 70% 30.00 in 10.0 mi NW 15.0 mph - 0.00 in Rain Light Rain
8:53 AM 64.0 °F 52.0 °F 65% 30.00 in 10.0 mi NW 16.1 mph 23.0 mph 0.00 in   Clear
9:53 AM 66.0 °F 52.0 °F 60% 30.00 in 10.0 mi NW 20.7 mph 25.3 mph 0.00 in   Clear
10:53 AM 68.0 °F 52.0 °F 56% 30.00 in 10.0 mi NW 21.9 mph 27.6 mph 0.00 in   Clear
11:53 AM 71.1 °F 51.1 °F 49% 29.99 in 10.0 mi NNW 21.9 mph 26.5 mph N/A   Clear
12:53 PM 73.9 °F 52.0 °F 46% 29.98 in 10.0 mi NNW 19.6 mph 26.5 mph 0.00 in   Clear
1:53 PM 75.9 °F 53.1 °F 45% 29.96 in 10.0 mi NW 13.8 mph 21.9 mph N/A   Clear
2:53 PM 75.9 °F 53.1 °F 45% 29.95 in 10.0 mi NW 20.7 mph 26.5 mph N/A   Clear
3:53 PM 75.9 °F 54.0 °F 46% 29.93 in 10.0 mi NW 25.3 mph 29.9 mph N/A   Clear
4:53 PM 75.0 °F 53.1 °F 46% 29.91 in 10.0 mi NW 20.7 mph 29.9 mph N/A   Clear
5:53 PM 73.9 °F 53.1 °F 48% 29.91 in 10.0 mi NW 20.7 mph 28.8 mph N/A   Clear
6:53 PM 73.0 °F 53.1 °F 49% 29.92 in 10.0 mi NW 15.0 mph - N/A   Clear
7:53 PM 70.0 °F 52.0 °F 53% 29.94 in 10.0 mi NW 18.4 mph - N/A   Clear
8:53 PM 68.0 °F 52.0 °F 56% 29.95 in 10.0 mi WNW 13.8 mph - 0.00 in Rain Light Rain
9:53 PM 66.9 °F 52.0 °F 59% 29.95 in 10.0 mi NW 13.8 mph - 0.00 in Rain Light Rain
10:53 PM 66.0 °F 52.0 °F 60% 29.95 in 10.0 mi WNW 10.4 mph - 0.00 in   Clear
11:53 PM 63.0 °F 51.1 °F 65% 29.95 in 10.0 mi West 5.8 mph - N/A   Clear